Theta_e
340 335 331 333 337 337 337 336 335 338 338 337 336 335 334 334 333 333 334 334 334 335 335 335 334 334 334 333 332 332 333 332 331 332 333 331 327 326 327 327 326 326 326 326 326 326 326 327 328 330 331 332 332 333 333 333 333 331 332 330 329 330
339 336 333 334 337 337 336 336 337 338 337 336 335 334 334 334 335 335 334 333 333 334 334 335 335 335 335 334 333 333 333 333 332 332 333 331 329 328 327 327 327 327 327 327 326 326 326 326 327 328 331 332 332 333 333 332 333 332 332 331 330 329
338 337 334 335 337 337 336 337 338 338 336 336 336 335 334 335 334 333 332 330 332 333 334 334 334 335 334 334 333 334 334 333 332 333 333 332 330 329 328 328 327 327 327 327 326 326 326 326 326 327 330 332 332 332 333 333 332 332 332 331 330 328
338 334 334 338 338 338 338 338 339 338 337 336 335 334 332 332 331 329 329 330 332 333 334 333 334 335 334 334 334 334 334 333 333 333 334 333 331 330 330 330 328 328 328 327 327 326 326 327 326 326 330 332 332 332 332 332 333 333 332 331 330 329
338 334 336 339 336 338 339 338 338 337 336 334 334 334 331 331 331 330 330 332 333 333 334 334 335 336 335 334 334 334 334 333 333 333 334 334 333 332 332 331 330 328 328 328 327 326 326 328 327 326 329 332 332 332 332 332 332 332 332 331 330 329
336 334 335 335 332 337 338 337 337 336 334 334 335 334 331 333 333 331 331 332 332 332 334 334 334 335 335 334 334 334 334 333 333 333 334 334 333 333 332 332 330 330 328 328 327 326 326 328 329 328 328 330 331 331 331 332 331 331 332 332 331 329
336 333 333 333 333 338 338 336 336 335 335 335 336 334 331 333 332 331 332 331 331 333 335 334 334 334 334 334 333 334 334 333 333 333 334 333 332 333 332 330 329 328 328 328 328 327 327 328 328 329 329 329 330 332 332 331 331 331 331 331 331 330
334 331 332 334 334 337 338 336 336 336 336 336 336 334 332 332 332 332 332 331 331 333 334 333 334 334 334 334 333 334 334 333 333 333 332 332 332 331 331 330 328 328 330 331 330 329 329 329 328 328 329 329 329 330 331 332 331 331 331 330 331 330
330 331 332 332 334 336 336 336 336 336 336 336 335 333 332 332 332 332 332 331 332 333 333 333 334 334 334 334 332 334 334 333 333 332 331 332 332 331 331 331 330 331 332 331 331 330 329 329 328 328 329 329 329 329 330 332 332 331 331 330 331 330
329 333 332 330 333 335 335 336 336 336 335 336 334 331 331 332 332 332 332 332 333 333 332 333 334 333 334 333 333 333 334 333 333 332 332 332 331 330 331 331 332 332 332 331 330 329 328 328 328 328 328 329 329 329 328 330 332 332 331 330 330 330
330 333 333 330 333 335 336 335 335 335 335 335 332 330 332 333 333 333 333 333 334 333 333 334 334 334 334 334 334 333 333 333 333 332 332 332 330 331 331 331 332 332 331 331 330 329 328 327 327 328 327 328 329 327 327 328 330 331 332 331 330 330
327 330 335 333 333 335 335 334 335 334 334 334 331 331 333 333 334 335 335 335 334 333 334 333 333 333 335 334 334 334 333 333 333 332 332 331 332 332 332 331 331 330 330 330 330 329 328 326 327 328 328 328 328 327 327 327 329 330 331 331 330 330
328 332 335 335 334 334 334 333 333 333 334 334 333 333 334 335 335 335 335 335 334 334 334 334 333 334 334 334 333 333 333 333 333 332 332 332 332 332 332 332 331 330 329 329 329 329 329 327 326 326 327 328 327 327 327 327 328 329 330 331 331 330
332 335 335 335 335 334 335 334 334 334 336 336 335 335 335 335 336 335 335 334 333 333 333 333 333 333 333 333 333 333 333 333 333 332 332 332 332 332 332 333 332 332 330 329 330 329 329 329 327 327 326 327 328 327 327 327 327 327 327 329 330 331
336 336 335 336 336 336 336 336 337 337 337 337 336 336 336 336 335 334 334 333 332 332 332 332 331 331 332 333 333 333 333 332 332 331 332 332 332 332 332 332 332 332 330 328 329 329 329 330 329 328 326 325 327 327 327 327 327 326 326 327 329 330
338 338 338 338 338 338 338 338 338 336 336 336 335 335 335 335 334 333 333 333 333 332 332 332 331 330 331 332 332 333 333 332 332 331 332 331 331 332 332 332 332 331 330 329 328 329 329 330 329 328 326 325 326 326 326 326 326 326 326 326 327 329
340 339 340 340 339 339 339 338 337 335 336 335 334 333 332 333 333 333 333 333 332 332 332 332 331 331 331 332 332 332 332 331 330 330 330 331 331 332 332 331 331 329 330 329 329 329 329 329 329 328 327 327 326 326 327 326 326 326 326 326 327 329
340 340 340 339 339 338 338 338 336 335 335 333 333 333 332 333 333 333 333 332 331 331 331 331 330 330 331 332 332 332 331 330 330 329 330 331 332 332 331 331 331 329 329 328 328 327 326 327 329 329 328 328 327 327 327 327 327 327 327 327 327 328
341 341 340 338 337 338 338 337 336 335 333 332 331 332 332 332 332 331 331 329 329 330 330 330 330 330 330 331 331 331 331 330 329 330 331 331 332 331 331 331 330 329 328 328 327 327 325 324 326 329 328 328 327 327 328 327 328 327 327 328 329 329
341 342 340 338 337 337 336 335 334 333 332 331 331 331 331 330 330 329 327 327 327 328 329 329 330 330 330 330 330 330 330 330 329 330 330 331 331 331 330 330 328 327 327 326 325 325 325 324 325 327 327 328 328 327 327 327 328 328 328 328 328 329
341 341 339 338 337 336 335 333 332 331 330 330 330 330 329 328 327 326 326 326 326 327 328 329 329 329 329 329 329 329 329 329 329 329 329 330 329 330 330 329 327 326 327 325 324 326 326 325 326 327 328 328 328 328 328 327 328 328 328 328 329 329
341 340 339 338 336 335 334 332 330 328 328 328 328 328 327 327 326 325 325 325 325 326 327 327 327 327 328 328 328 329 329 329 329 329 329 329 329 329 329 329 328 327 327 326 326 327 327 327 329 329 329 330 328 328 329 328 328 327 327 327 328 328
340 340 339 337 334 334 333 329 327 327 326 326 327 327 327 326 324 323 323 323 323 324 325 326 326 326 326 326 327 327 328 328 328 328 329 329 329 329 329 329 328 328 329 328 328 328 328 328 330 330 330 330 329 328 329 329 329 328 327 326 326 327
340 340 339 337 335 334 332 328 327 327 326 326 326 326 326 325 323 321 321 321 321 321 323 325 325 324 324 324 325 325 326 328 328 328 328 329 330 329 328 328 328 328 329 329 328 328 328 328 329 330 329 329 328 328 329 330 330 329 328 328 327 326
339 340 339 337 335 333 330 328 327 327 326 326 326 326 324 324 322 322 322 320 319 320 321 322 322 323 322 322 323 324 325 326 327 328 328 329 329 328 328 327 328 328 328 329 329 328 328 327 327 327 328 329 328 328 329 329 330 329 327 327 328 327
337 338 338 335 333 332 329 327 327 326 325 325 325 324 323 322 322 321 320 319 319 319 320 320 320 321 321 321 322 323 325 326 327 328 327 328 328 328 327 327 327 327 327 328 328 328 327 327 326 326 326 328 328 328 329 329 329 330 327 324 324 325
336 337 336 333 333 331 328 326 325 323 322 323 323 322 321 321 320 320 319 319 319 319 320 320 320 320 320 321 323 323 324 326 326 326 326 326 326 327 327 326 326 327 327 327 327 328 328 327 327 327 326 326 326 327 328 329 329 330 328 323 319 319
335 336 334 332 331 330 326 325 324 321 321 321 321 321 320 320 320 319 319 319 319 319 319 319 319 321 322 322 322 322 324 324 324 323 324 324 324 324 325 326 326 326 327 326 326 327 328 327 327 327 326 326 326 325 326 327 328 328 328 323 319 318
332 332 331 330 330 327 325 324 322 320 321 321 320 320 320 320 319 319 319 319 319 319 319 318 318 321 322 322 321 322 323 323 323 323 322 322 322 322 324 326 326 327 327 326 327 327 327 326 326 326 326 326 325 323 323 323 325 327 327 323 320 320
328 328 328 329 328 325 324 323 321 320 321 320 320 319 319 320 319 319 319 319 319 319 318 318 319 321 322 321 320 321 322 323 323 322 322 321 320 320 322 323 324 325 325 325 325 325 326 326 325 325 325 326 324 323 323 323 323 324 324 323 319 319
324 325 327 327 325 324 324 322 321 321 320 320 319 318 318 320 320 319 319 318 318 318 318 318 320 321 321 319 318 318 320 322 322 322 321 318 317 318 320 319 319 320 320 321 321 323 325 324 324 324 324 325 324 324 324 323 321 321 320 320 319 318
323 324 325 325 324 324 323 322 321 321 321 320 319 316 316 318 319 319 318 318 317 317 318 319 319 319 317 315 314 314 317 319 320 320 318 316 316 318 319 316 317 317 316 317 318 320 321 319 318 320 320 321 320 320 319 318 318 320 320 320 319 318
322 322 323 323 323 323 323 322 322 322 321 320 319 316 314 316 318 318 318 317 316 316 317 317 316 315 314 313 312 312 315 317 317 317 315 315 316 318 317 316 316 316 315 315 315 316 316 315 314 315 315 315 315 315 314 313 314 318 320 320 319 318
322 321 321 321 321 322 322 322 322 322 321 320 318 315 312 313 315 316 317 317 315 315 315 315 315 314 314 314 311 310 312 313 313 313 313 315 317 316 315 316 315 314 314 314 313 313 312 312 312 312 312 311 311 311 311 311 312 314 317 318 319 318
324 323 323 322 321 321 321 322 322 322 321 320 318 315 312 311 312 315 317 316 314 313 313 314 315 315 315 314 311 310 311 311 309 309 309 311 314 315 315 315 314 313 313 312 311 311 310 309 309 308 308 309 310 310 309 310 310 311 312 314 317 317
324 324 324 323 321 321 322 322 322 322 321 320 319 316 313 311 311 314 316 315 313 311 311 312 313 314 314 314 312 311 311 311 309 307 305 305 309 313 315 314 313 312 312 311 310 309 308 308 306 306 306 307 310 310 309 309 309 309 309 310 313 315
323 323 324 324 322 322 323 323 323 322 321 320 319 317 313 311 311 313 314 313 312 310 309 309 310 312 313 314 313 312 311 311 311 310 307 305 305 308 311 313 313 312 311 310 309 307 307 307 306 306 307 307 309 308 308 308 309 308 308 308 310 312
Wind_Speed
18 20 21 19 16 15 14 14 15 16 16 16 15 14 14 14 14 13 11 11 9 8 7 7 8 8 8 8 8 8 8 8 8 8 8 9 9 9 10 9 8 8 9 9 8 8 8 8 8 8 7 6 6 9 11 9 6 4 4 3 4 4
17 18 18 17 15 15 15 15 15 15 15 14 13 13 14 14 13 12 11 10 9 8 7 7 7 8 9 8 8 8 8 8 8 7 7 8 8 8 9 8 7 7 8 8 7 7 7 7 8 8 8 7 6 10 11 9 6 4 3 2 3 3
15 15 16 15 14 15 15 15 14 14 13 12 12 12 12 12 12 11 10 10 9 8 8 8 7 8 8 8 7 7 8 8 8 8 7 7 7 7 7 7 6 7 7 7 6 5 6 6 7 8 9 8 8 10 11 9 7 5 3 2 2 2
13 15 14 13 13 13 13 14 13 13 13 12 11 11 11 11 11 10 9 9 9 8 8 8 7 8 8 8 6 6 6 7 8 7 7 7 6 6 6 6 5 5 5 5 4 4 4 4 6 8 9 8 8 9 10 10 8 6 4 3 2 2
13 15 13 11 13 12 12 13 14 14 13 13 12 11 11 10 10 9 8 8 8 8 8 8 7 8 8 7 6 6 6 7 8 8 7 7 6 6 5 5 4 4 3 3 2 2 3 3 4 6 8 8 8 7 8 10 9 7 5 4 4 3
16 17 15 13 13 11 12 13 14 15 14 13 12 12 11 10 9 8 8 7 7 7 7 7 7 8 8 7 6 6 7 7 8 8 7 6 5 5 4 4 3 3 2 2 1 2 3 3 4 5 7 8 7 7 7 8 10 9 6 5 5 4
14 17 17 14 13 10 10 13 13 14 13 12 12 12 12 10 9 8 7 7 6 6 5 5 6 7 7 7 6 7 8 7 8 8 7 6 5 5 4 4 3 2 1 1 1 1 2 3 3 4 6 7 8 7 7 8 9 9 8 7 6 5
10 15 16 14 13 11 10 13 12 11 11 10 10 11 11 10 9 8 7 6 5 5 5 4 5 6 7 7 7 7 8 8 8 8 8 7 6 5 5 4 3 2 1 1 1 1 2 2 3 4 5 6 7 7 7 8 9 9 8 7 6 5
13 14 14 12 12 12 12 13 11 10 10 9 9 10 10 9 8 7 6 6 6 5 5 5 5 5 5 6 6 7 8 9 8 8 8 7 6 5 5 4 3 2 1 1 0 2 2 1 1 3 5 6 6 6 6 7 7 7 8 7 6 6
15 12 12 13 13 14 12 12 10 10 9 8 8 10 9 8 7 7 7 6 6 6 6 5 4 4 5 5 5 5 7 9 9 8 8 7 6 6 6 6 4 3 3 2 2 3 3 1 1 3 5 6 6 5 6 8 7 7 7 7 7 7
12 11 12 14 14 13 10 10 10 9 9 7 7 9 9 8 7 6 6 7 7 9 7 5 4 5 5 5 4 4 6 8 8 8 7 6 6 6 6 6 5 4 4 4 4 5 3 1 1 3 6 7 6 5 5 7 8 7 7 8 8 7
13 13 12 13 13 11 9 9 9 9 8 7 7 7 8 8 7 7 7 8 8 9 7 5 5 6 6 5 4 4 6 6 6 7 7 6 6 6 6 6 6 5 5 5 5 5 3 2 2 3 6 7 7 5 4 6 8 8 8 7 8 7
16 15 12 11 10 9 9 9 9 8 7 6 6 6 6 6 7 8 7 7 8 7 7 6 7 7 6 5 5 5 6 7 7 7 6 6 6 6 5 5 5 4 4 5 5 5 3 2 3 3 4 5 6 5 4 4 5 6 6 6 6 6
14 14 12 11 10 8 8 9 8 8 7 6 5 4 3 4 5 5 5 6 7 6 6 7 8 8 6 6 6 6 7 8 8 8 7 6 5 5 4 3 4 3 4 5 5 4 3 1 2 2 2 3 4 4 4 3 3 4 5 5 5 5
12 12 11 10 10 8 8 9 8 7 7 6 4 3 2 2 2 2 2 2 3 3 4 4 6 8 7 6 7 7 8 7 7 7 7 6 5 5 4 3 3 4 5 5 4 4 3 1 1 1 1 1 2 3 3 4 4 5 5 5 5 5
12 11 11 11 10 8 8 8 7 7 6 5 5 4 2 1 1 3 2 2 2 1 3 2 3 6 6 6 6 7 8 6 5 6 6 7 6 4 4 5 5 5 5 5 4 3 3 2 1 1 1 1 2 3 3 4 5 6 7 7 7 7
13 13 12 11 10 8 8 8 7 6 5 5 5 4 4 4 4 3 2 2 1 1 1 1 1 3 3 4 5 5 6 5 4 5 6 7 5 5 5 7 8 7 5 4 3 2 1 2 2 2 2 2 3 3 5 5 6 7 7 8 9 9
15 14 12 12 10 8 8 8 7 6 5 6 5 5 6 6 5 3 2 2 1 1 0 1 1 2 1 3 4 4 4 2 3 5 5 5 4 5 6 7 7 7 6 6 5 3 2 2 2 2 2 3 4 5 6 6 7 7 7 7 8 10
15 14 12 12 10 10 9 8 7 6 6 6 7 7 7 6 6 5 4 3 2 1 1 1 1 1 1 2 3 3 2 2 3 4 4 3 3 4 4 5 6 7 10 9 8 6 4 5 5 4 4 4 4 4 4 4 5 5 6 6 7 8
15 14 13 13 12 12 10 8 8 8 7 7 8 9 9 8 8 6 6 5 4 3 2 2 2 1 1 1 1 1 0 1 2 2 3 2 2 2 2 4 6 8 11 10 8 7 7 7 7 5 5 5 5 4 3 3 2 1 2 3 3 3
15 15 15 15 15 12 10 9 10 10 10 10 10 11 11 10 9 8 7 6 6 5 5 5 5 4 3 1 0 0 1 1 1 2 2 2 2 2 2 4 6 8 10 9 8 9 9 8 7 5 5 4 5 5 4 4 3 2 2 1 1 1
16 16 17 16 14 11 11 12 13 13 13 13 12 12 12 11 10 9 7 6 6 6 5 6 6 6 5 3 2 2 2 2 2 2 1 2 2 2 2 3 6 7 8 8 8 8 9 8 5 5 4 3 5 5 4 4 5 5 4 3 1 0
17 17 16 15 13 12 13 12 12 13 14 14 13 12 11 11 11 10 8 7 6 6 6 5 6 6 6 5 4 4 3 2 2 2 1 1 2 3 3 4 6 7 6 5 6 6 7 6 4 3 3 3 3 3 4 5 5 4 4 5 4 3
18 18 17 15 13 13 13 12 12 14 13 12 13 11 10 10 10 8 7 5 4 5 6 5 5 6 6 5 4 4 4 3 2 2 2 1 1 3 4 4 6 6 6 5 5 5 5 5 4 3 3 1 1 2 3 3 3 1 1 2 2 3
19 19 18 17 15 14 15 15 16 16 14 13 13 11 10 10 8 6 5 4 3 4 5 5 5 5 4 4 3 3 4 4 2 2 2 1 1 2 3 4 4 5 5 4 4 5 5 5 5 5 4 1 1 2 1 1 2 1 4 3 2 3
20 19 19 18 16 16 16 17 18 17 14 13 12 10 10 10 8 7 6 6 6 6 5 4 4 4 4 4 3 3 4 4 2 2 2 2 1 2 2 3 2 4 4 4 4 4 4 4 4 4 5 2 0 1 0 2 2 2 6 8 7 5
21 20 20 18 17 16 17 18 16 13 12 12 12 11 10 10 10 9 9 9 8 7 6 5 5 5 4 4 4 4 5 4 4 4 4 4 4 3 3 3 3 3 4 3 4 4 4 4 4 4 4 3 1 1 1 2 1 2 3 6 9 10
22 22 21 19 17 17 17 17 14 12 12 11 11 12 11 11 11 11 11 11 9 8 7 6 5 5 5 5 5 5 5 5 5 6 7 6 6 6 4 3 3 3 3 3 4 4 3 4 4 5 5 3 1 2 3 3 2 2 3 4 5 8
21 21 21 19 18 18 17 15 13 12 13 12 11 12 12 12 12 12 11 10 9 8 7 6 5 5 5 6 6 6 5 4 4 5 6 6 6 6 5 4 4 4 4 4 4 4 4 3 3 5 6 4 4 6 6 5 4 4 4 4 4 4
21 21 21 19 18 17 16 14 13 12 13 13 13 13 14 13 12 11 10 9 8 7 7 6 6 6 6 6 5 4 3 2 2 3 4 5 5 6 6 7 7 6 6 5 4 4 5 5 4 4 6 7 6 7 5 4 4 5 4 4 5 6
19 20 20 19 18 17 15 14 12 10 11 12 13 14 15 15 13 11 10 10 8 8 7 7 7 7 6 5 4 3 2 2 2 2 3 3 4 5 8 10 11 10 9 8 7 7 7 7 7 7 7 7 6 5 5 5 5 5 5 6 7 7
16 18 19 18 17 16 15 14 12 10 9 10 11 12 14 15 14 12 12 11 10 9 8 8 8 7 6 5 4 4 3 3 3 3 2 3 5 7 8 10 11 11 10 10 10 11 11 12 12 12 10 9 8 7 7 7 7 6 7 9 9 9
14 15 17 17 17 17 16 14 12 11 10 10 10 10 12 13 13 12 12 12 11 10 9 8 8 7 6 5 5 5 5 4 4 3 3 4 6 7 7 8 8 8 8 9 10 11 12 13 13 13 13 12 10 9 8 8 7 7 7 10 11 10
11 12 15 17 17 17 16 15 14 13 12 11 11 11 11 12 13 12 12 12 12 11 9 8 7 6 6 5 5 6 6 5 5 5 5 5 5 5 6 6 6 7 8 9 9 10 11 11 10 11 11 11 11 10 10 9 7 6 6 8 9 10
7 11 15 16 17 16 16 15 15 14 14 13 12 12 12 12 12 12 12 12 11 11 9 8 6 5 5 5 5 6 7 7 7 7 6 5 4 4 4 4 5 6 8 8 8 9 9 10 10 10 10 12 12 11 11 10 8 7 5 5 7 11
12 14 15 15 16 16 16 16 15 16 16 14 13 12 13 13 12 11 11 11 11 10 8 7 6 5 5 4 4 6 7 7 8 9 8 7 6 4 3 4 5 6 7 8 8 8 9 10 10 11 11 12 12 11 11 10 10 10 9 8 8 10
19 17 16 17 18 18 17 16 16 16 16 15 14 13 13 14 13 12 11 10 10 10 9 7 6 5 5 4 4 5 5 6 7 8 9 9 8 6 5 5 6 6 7 7 7 8 9 10 11 11 12 12 12 12 11 11 10 11 12 11 9 8
Wind_Direction
161 163 164 162 157 156 159 159 159 155 152 149 149 150 149 152 152 151 150 148 144 141 141 137 134 133 129 128 130 134 134 134 137 142 140 135 137 145 145 139 126 124 126 126 131 136 138 137 136 130 131 156 177 176 180 181 175 165 154 149 140 145
159 160 160 160 158 159 160 161 159 155 152 151 150 149 151 153 154 156 159 157 156 155 152 145 142 141 137 136 144 146 142 140 142 144 145 141 141 148 152 149 140 135 133 130 131 136 140 136 136 134 133 143 156 169 176 177 176 172 164 159 157 157
156 153 155 159 161 162 160 159 158 153 151 152 152 154 157 160 163 167 169 167 167 166 158 147 143 143 143 146 154 156 151 153 153 149 150 152 148 149 152 152 151 146 140 135 131 130 138 136 135 134 134 136 146 163 172 175 179 181 181 181 185 182
146 148 157 163 162 159 159 159 156 153 153 156 159 165 171 170 171 175 178 176 169 166 158 146 142 145 147 152 159 159 161 167 164 158 158 160 158 152 148 150 157 157 150 141 130 121 126 132 135 136 136 136 144 162 173 178 183 191 194 198 222 230
142 152 163 167 164 163 166 163 158 158 161 165 167 173 181 175 171 176 179 177 168 167 162 151 152 154 150 154 163 164 173 181 174 172 169 165 169 163 152 154 161 169 171 158 140 125 124 127 126 134 140 139 142 155 174 184 186 190 196 207 235 247
154 157 165 172 175 176 176 173 167 167 169 172 175 178 185 179 174 180 179 180 177 173 168 159 158 159 156 157 168 172 177 183 178 179 175 169 178 173 163 165 168 185 201 202 198 150 144 143 127 129 142 145 144 146 162 181 186 185 189 205 232 247
156 158 164 172 179 184 182 182 177 175 175 177 182 185 188 186 184 188 183 186 189 183 179 172 162 160 161 161 173 181 179 178 179 179 175 173 178 174 171 172 180 200 235 249 242 188 163 156 146 137 143 149 150 153 155 167 178 181 185 201 224 244
157 167 169 166 176 192 193 187 182 179 183 183 185 189 191 190 189 190 185 188 195 196 195 189 178 169 164 164 177 183 178 177 180 180 178 175 175 175 175 177 189 205 240 268 267 195 178 162 162 154 153 156 155 161 167 168 176 181 187 198 216 240
175 179 171 163 178 201 202 190 184 184 188 187 189 193 195 195 193 192 191 195 200 209 212 207 200 189 176 179 188 185 180 180 180 182 182 178 177 179 180 185 190 190 203 216 216 188 175 164 182 174 172 170 165 166 171 176 179 181 189 195 208 231
182 183 172 171 188 206 204 189 187 193 193 192 196 195 195 199 199 199 200 200 208 218 221 217 212 211 200 202 205 194 188 185 183 183 180 182 184 181 181 184 183 185 195 199 199 191 176 155 185 190 187 182 182 176 167 174 178 182 192 196 206 223
183 190 184 185 195 204 201 187 192 199 196 198 201 194 195 201 204 208 206 205 217 224 224 223 223 226 218 217 217 202 194 190 186 182 180 187 187 182 183 185 186 188 189 187 191 191 180 134 109 181 189 190 193 186 169 174 179 183 195 206 210 217
190 199 195 191 195 200 195 188 193 197 198 205 203 195 196 203 208 212 208 209 226 234 236 232 225 223 214 213 221 211 199 193 188 183 181 185 183 183 187 189 188 183 180 180 185 192 184 113 92 149 178 189 197 196 184 177 181 187 198 215 219 215
198 204 198 195 196 196 193 190 194 197 199 201 199 195 197 209 218 221 217 228 245 246 247 243 233 229 215 201 205 215 211 200 197 193 187 186 188 190 191 197 196 188 182 177 181 191 181 104 85 106 153 178 192 199 201 187 187 196 203 217 224 220
201 205 202 201 199 195 194 195 198 197 194 195 196 191 194 225 244 252 249 254 257 249 253 250 236 231 223 203 197 215 224 212 206 205 199 194 195 196 194 203 203 201 196 182 182 189 180 138 113 100 118 153 185 196 200 205 212 219 219 218 218 221
200 204 206 205 198 194 194 196 196 190 191 190 182 169 173 244 275 315 306 292 289 273 275 270 237 225 223 214 200 214 229 225 218 211 203 197 196 199 194 193 199 203 199 188 182 185 184 180 171 158 134 140 191 204 203 212 221 228 234 229 220 222
194 198 202 203 198 195 193 195 192 184 182 162 146 148 147 149 70 33 38 25 2 274 273 296 259 231 222 223 215 220 231 231 219 203 198 200 201 198 191 195 202 198 192 190 186 185 197 207 203 200 195 192 200 215 219 221 224 226 232 230 226 226
191 194 197 203 200 195 191 192 185 167 151 131 125 118 103 102 90 71 66 49 52 140 223 22 305 264 238 235 232 232 238 230 210 202 200 204 206 201 204 206 204 197 188 186 186 183 205 204 196 196 199 204 198 210 221 224 230 233 235 234 231 231
190 191 194 199 195 191 190 186 171 148 134 125 115 104 97 100 106 106 102 93 88 82 49 75 346 302 274 252 250 249 252 230 208 212 208 209 213 210 213 209 199 192 178 174 189 194 211 213 186 173 183 189 190 202 216 220 226 234 239 239 236 238
186 186 191 194 187 188 187 177 160 143 136 128 117 112 110 111 113 112 112 105 87 60 13 46 22 293 244 255 262 264 264 223 210 211 206 213 221 211 209 202 188 180 178 185 200 195 187 202 191 181 189 189 182 181 199 211 218 229 238 242 241 243
181 184 190 189 184 184 177 166 160 151 143 134 126 120 116 117 114 110 104 89 77 72 59 75 98 102 109 249 254 246 179 180 199 201 206 221 223 218 210 192 174 177 186 190 196 188 180 188 185 183 194 201 199 186 176 177 176 205 229 243 242 237
181 188 193 187 182 180 169 164 165 160 151 137 130 124 120 117 113 110 101 88 83 80 73 83 95 97 98 80 325 82 109 119 136 154 198 212 198 203 197 179 168 181 194 186 181 187 184 180 177 184 195 206 216 215 204 193 190 189 182 168 116 116
187 192 196 189 182 180 176 173 168 160 150 137 130 126 123 119 115 112 106 97 93 86 84 87 92 97 96 83 54 42 62 91 108 121 180 206 174 167 156 158 163 183 198 188 185 192 185 182 188 196 198 210 218 221 219 217 218 215 209 213 215 266
195 196 198 191 183 184 182 179 167 154 145 135 130 126 121 118 115 113 105 99 95 91 88 89 94 93 86 76 58 36 36 65 102 125 175 205 142 141 141 149 164 184 202 194 190 197 188 187 197 189 195 220 225 224 217 215 219 221 227 231 243 261
200 198 198 190 183 187 184 175 159 146 139 132 129 126 120 116 115 112 104 96 93 94 92 92 95 88 76 63 49 30 23 35 69 117 152 158 116 128 137 147 163 186 212 210 192 197 196 194 195 188 202 219 209 237 225 202 198 180 317 254 268 281
200 199 197 188 185 190 181 165 150 139 133 127 126 128 125 122 122 116 107 99 99 105 100 93 86 82 72 47 30 15 8 22 55 97 127 130 125 131 134 147 166 183 204 213 198 193 196 201 208 209 219 218 201 245 242 134 181 127 45 21 355 323
201 200 196 189 188 190 180 166 154 143 136 130 126 127 127 127 128 122 114 112 110 111 107 96 88 81 62 33 25 14 10 29 63 75 74 63 76 93 102 126 162 179 186 205 204 200 196 194 201 206 216 221 235 306 156 149 199 143 69 46 40 41
201 201 194 188 189 188 180 173 163 145 135 134 131 132 133 129 126 123 119 117 114 110 106 100 96 86 69 53 45 34 28 48 73 77 76 77 80 82 91 108 126 154 170 186 188 194 194 185 190 198 211 221 223 13 63 154 185 169 115 62 53 59
197 198 191 187 189 188 183 179 168 143 132 134 134 137 139 133 128 126 122 120 118 113 107 100 96 92 88 79 63 51 48 61 80 85 83 82 79 77 82 100 114 130 144 148 153 162 172 181 191 192 197 215 201 75 75 96 111 143 151 119 83 70
190 190 184 183 186 186 186 184 170 148 139 139 138 140 144 140 134 131 127 124 122 118 111 101 96 99 98 86 73 65 60 65 80 83 79 75 72 68 68 84 101 110 121 127 131 132 137 152 168 180 183 179 135 106 88 76 95 132 145 136 126 105
177 178 177 179 185 186 188 187 175 156 147 146 146 146 147 145 141 137 131 127 127 121 115 109 102 104 103 90 77 68 65 70 72 75 74 67 63 65 73 87 96 98 104 109 110 112 112 116 126 149 163 163 143 124 114 95 105 134 146 127 120 117
161 169 174 181 188 188 190 192 183 166 155 153 154 154 152 150 147 144 139 133 129 123 119 119 116 113 111 98 81 68 77 95 87 82 68 48 59 81 91 95 95 92 91 91 94 105 109 105 106 117 136 149 148 136 133 131 131 143 146 129 124 119
154 168 178 185 190 190 192 194 188 178 170 165 163 161 158 156 152 149 146 139 132 127 126 126 125 122 116 98 75 70 83 97 100 88 46 53 84 100 103 100 96 92 88 87 90 100 108 109 108 114 124 130 129 125 121 123 132 149 151 140 132 125
163 170 180 186 192 193 194 195 192 191 187 179 172 166 161 155 151 150 148 141 136 133 134 133 130 124 110 89 73 79 88 92 94 78 63 89 104 108 106 102 96 92 92 93 96 102 109 110 111 114 119 121 118 116 117 122 132 144 150 148 141 131
166 173 188 193 197 197 198 200 198 198 196 188 178 168 161 152 147 149 146 140 134 132 137 141 138 127 107 85 77 85 87 85 85 78 77 94 108 109 107 101 95 96 100 102 103 106 109 110 111 113 117 119 115 111 111 115 120 126 143 154 151 142
186 201 206 202 202 200 202 204 202 203 201 195 186 171 159 149 146 148 147 141 132 125 130 138 142 137 114 90 81 84 80 74 73 71 71 79 96 108 107 98 97 103 105 105 105 106 107 109 111 114 118 116 111 108 107 108 105 102 117 146 152 148
229 231 221 211 211 210 209 208 207 208 206 201 195 177 160 152 149 148 149 146 134 121 119 125 136 142 129 105 90 87 79 69 65 63 63 66 75 91 103 100 104 108 105 101 101 102 105 110 111 113 115 112 107 105 104 101 96 93 99 117 141 156
217 231 226 220 219 216 214 214 213 213 210 208 204 189 168 158 152 148 148 148 142 128 114 112 127 139 145 132 112 101 89 76 68 64 64 65 67 75 89 101 106 105 102 95 91 95 104 110 112 111 112 109 106 105 103 98 93 89 89 96 115 146